Regional Weather Roundup
Issued by NWS

Home | Current Version | Previous Version | Graphics & Text | Print | Product List | Glossary Off
Versions: 1 2 3 4 5 6 7 8 9 10 11 12 13 14 15 16 17 18 19 20 21 22 23 24 25 26 27 28 29 30 31 32 33 34 35 36 37 38 39 40 41 42 43 44 45 46 47 48 49 50

000
ASUS43 KMPX 180510
RWRMN
WEATHER ROUNDUP FOR MINNESOTA
NATIONAL WEATHER SERVICE TWIN CITIES/CHANHASSEN MN
1200 AM CDT THU SEP 18 2014


NOTE: "FAIR" INDICATES FEW OR NO CLOUDS BELOW 12,000 FEET WITH NO
SIGNIFICANT WEATHER AND/OR OBSTRUCTIONS TO VISIBILITY. N/A MEANS
CURRENT SKY AND/OR WEATHER CONDITIONS ARE NOT AVAILABLE.

MNZ060>063-068>070-180600-
   Twin Cities Metro

CITY           SKY/WX    TMP DP  RH WIND       PRES   REMARKS
TWIN CITIES    CLEAR     58  53  84 N7        30.03R
ST PAUL        CLEAR     57  53  86 NE3       30.04R
CRYSTAL        CLEAR     57  52  83 NE6       30.03R
BLAINE         CLEAR     55  54  94 NE3       30.04R
LAKEVILLE      CLEAR     50  50 100 CALM      30.02S
EDEN PRAIRIE     N/A    N/A N/A N/A MISG      30.01R
SOUTH ST PAUL  CLEAR     58  53  84 NE3       30.03R
LAKE ELMO      FAIR      54  52  94 NE9       30.05R
$$
MNZ001>005-007-008-013>017-022>024-027-028-180600-
   Northwest Minnesota

CITY           SKY/WX    TMP DP  RH WIND       PRES   REMARKS
BEMIDJI        MOCLDY    46  43  90 E8        30.06S
HALLOCK        CLEAR     43  39  87 E7        30.07F
ROSEAU         CLEAR     39  36  87 E8        30.09S
WARROAD        CLEAR     45  39  81 E12G17    30.10S
THIEF RVR FALL CLEAR     45  39  81 E7        30.06S
CROOKSTON      CLEAR     46  43  87 E8        30.05S
FOSSTON        CLEAR     45  39  81 CALM      30.05S
DETROIT LAKES  CLEAR     54  50  87 E3        30.04F
MOORHEAD       CLEAR     48  48 100 NE3       30.02S
PARK RAPIDS    CLEAR     52  48  86 E3        30.05R
MAHNOMEN       FAIR      47  45  91 E6        30.03S
$$
MNZ006-009>011-018-025>026-180600-
   North Central Minnesota

CITY           SKY/WX    TMP DP  RH WIND       PRES   REMARKS
BAUDETTE       CLEAR     37  35  92 E5        30.11S
FLAG ISLAND    MOCLDY    45  37  76 SE6       30.10S
INTL FALLS     PTCLDY    40  37  89 E7        30.11S
WASKISH        CLEAR     39  37  93 CALM      30.09S
BIG FORK       CLOUDY    46  45  93 CALM      30.09S
LONGVILLE      CLOUDY    46  45  93 E3        30.08R
GRAND RAPIDS   CLOUDY    45  39  81 E6        30.10S
CRANE LAKE     CLEAR     32  32 100 CALM      30.14S
ORR            CLOUDY    43  39  87 SE3       30.09S
COOK           CLOUDY    45  41  87 SE7       30.12S
WALKER         CLOUDY    49  47  90 E7        30.06R
$$
MNZ012-019>021-037-180600-
   Northeast Minnesota

CITY           SKY/WX    TMP DP  RH WIND       PRES   REMARKS
DULUTH         CLOUDY    45  40  82 E13       30.12S
ELY            CLEAR     37  36  93 CALM      30.13S
HIBBING        CLOUDY    45  39  79 SE9       30.12S
EVELETH        CLOUDY    43  37  81 SE6       30.12F
DULUTH HARBOR  CLOUDY    48  43  81 E10G17    30.14S
TWO HARBORS    CLOUDY   N/A N/A N/A E6        30.12S
SILVER BAY     MOCLDY    43  41  93 NE3       30.13R
GRAND MARAIS     N/A     45  39  79 NE3       30.16S
G MARAIS ARPRT CLOUDY    37  34  87 NE6       30.14S
$$
MNZ029>031-032-039>041-046>048-054>057-064-180600-
   West Central Minnesota

CITY           SKY/WX    TMP DP  RH WIND       PRES   REMARKS
FERGUS FALLS   CLEAR     57  50  77 E9        30.01S
WHEATON        CLEAR     50  45  81 CALM      30.02S
MORRIS         CLEAR     54  52  94 E7        30.00S
ALEXANDRIA     CLEAR     56  51  84 NE5       30.03R
ELBOW LAKE     FAIR      57  52  82 E6        30.01S
WADENA         CLEAR     52  48  87 E6        30.04R
GLENWOOD       CLEAR     55  52  88 CALM      30.02S
APPLETON       CLEAR     55  52  88 CALM      29.99S
BENSON         CLEAR     57  54  88 SE3       30.00S
ORTONVILLE     CLEAR     57  52  82 E5        29.99F
MADISON        CLEAR     55  54  94 CALM      30.00S
WILLMAR        FAIR      57  52  82 CALM      30.02S
$$
MNZ033>034-036-042>043-049>051-058-059-180600-
   Central Minnesota

CITY           SKY/WX    TMP DP  RH WIND       PRES   REMARKS
ST CLOUD       CLOUDY    51  48  89 E8G17     30.05R
SAUK CENTRE    FAIR      53  52  97 NE8       30.03R
PAYNESVILLE    CLEAR     49  49 100 N5        30.03R
AITKIN         CLOUDY    48  41  76 E8G16     30.08S
PINE RIVER     CLOUDY    46  45  93 E10       30.11R
BRAINERD       CLOUDY    47  45  93 VRB5      30.08R
STAPLES        CLOUDY    52  48  87 E5        30.05R
LONG PRAIRIE   FAIR      52  50  93 NE3       30.04R
LITTLE FALLS   CLOUDY    46  45  93 E5        30.06R
LITCHFIELD     CLEAR     55  55 100 CALM      30.02S
BUFFALO        CLEAR     54  51  87 NE12      30.04S
MAPLE LAKE     CLEAR     54  53  96 NE5       30.05R
$$
MNZ037-044-045-052-053-180600-
   East Central Minnesota

CITY           SKY/WX    TMP DP  RH WIND       PRES   REMARKS
PRINCETON      CLOUDY    52  48  87 NE12      30.06S
MORA           CLOUDY    45  43  93 E7        30.10S
CAMBRIDGE      CLOUDY    52  43  71 NE7       30.06R
RUSH CITY      CLOUDY    48  45  89 NE7       30.08S
MOOSE LAKE     CLOUDY    45  41  87 NE6       30.09S
HINCKLEY       CLOUDY    46  45  93 NE8       30.10R
CLOQUET        CLOUDY    45  39  81 E9        30.11S
MCGREGOR       MOCLDY    45  41  87 E10       30.11S
$$
MNZ071>073-080-081-089-090-097-098-180600-
   Southwest Minnesota

CITY           SKY/WX    TMP DP  RH WIND       PRES   REMARKS
MONTEVIDEO     CLEAR     55  54  94 SE3       30.01S
GRANITE FALLS  CLEAR     56  52  86 E3        30.02R
CANBY          CLEAR     52  51  93 CALM      30.01S
MARSHALL       CLEAR     54  48  82 CALM      29.99S
REDWOOD FALLS  CLEAR     59  53  80 SE3       30.00R
OLIVIA         CLEAR     57  52  82 CALM      30.00S
PIPESTONE      PTCLDY    59  52  77 E3        30.01S
WINDOM         PTCLDY    57  54  88 E3        30.01S
WORTHINGTON    CLEAR     54  52  94 N3        30.02S
JACKSON        CLEAR     55  52  88 SE5       30.02R
TRACY          CLEAR     60  53  79 CALM      30.01S
SLAYTON        CLEAR     56  52  85 CALM      30.02S
$$
MNZ065>067-074>077-082>085-091>093-180600-
   South Central Minnesota

CITY           SKY/WX    TMP DP  RH WIND       PRES   REMARKS
MANKATO        CLEAR     55  50  82 SE6       30.01S
NEW ULM        CLEAR     57  55  94 CALM      30.01R
ST JAMES       PTCLDY    57  54  88 E5        30.02S
FAIRMONT       CLEAR     55  48  76 S3        30.01S
GLENCOE        CLEAR     55  51  86 CALM      30.01R
FARIBAULT      CLEAR     52  46  82 CALM      30.02S
OWATONNA       CLEAR     54  50  87 CALM      30.02S
WASECA         CLEAR     50  46  87 CALM      30.04R
ALBERT LEA     CLEAR     54  52  94 CALM      30.03R
$$
MNZ078>079-086>088-094>096-180600-
   Southeast Minnesota

CITY           SKY/WX    TMP DP  RH WIND       PRES   REMARKS
ROCHESTER      CLEAR     53  50  89 S6        30.04R
RED WING       CLEAR     52  50  93 CALM      30.02R
STANTON        CLEAR     52  49  92 CALM      30.01R
DODGE CENTER   PTCLDY    54  52  94 SE3       30.03S
WINONA         CLEAR     54  54 100 CALM      30.03S
AUSTIN         CLEAR     52  46  82 CALM      30.03R
PRESTON        CLEAR     54  53  95 S5        30.04S
$$
ABBREVIATIONS USED IN REMARKS
   TC - TEMPERATURES IN CELSIUS
  WCI - WIND CHILL INDEX
   HX - HEAT INDEX
  VSB - VISIBILITY
$$



USA.gov is the U.S. government's official web portal to all federal, state and local government web resources and services.